Regional Weather Roundup
Issued by NWS

Home | Current Version | Previous Version | Text Only | Print | Product List | Glossary Off
Versions: 1 2 3 4 5 6 7 8 9 10 11 12 13 14 15 16 17 18 19 20 21 22 23 24 25 26 27 28 29 30 31 32 33 34 35 36 37 38 39 40 41 42 43 44 45 46 47 48 49 50

000
ASUS43 KDTX 290810
RWRMI
MICHIGAN HOURLY REGIONAL WEATHER ROUNDUP
NATIONAL WEATHER SERVICE DETROIT/PONTIAC MI
300 AM EST THU JAN 29 2015

NOTE: "FAIR" INDICATES FEW OR NO CLOUDS BELOW 12,000 FEET WITH NO
SIGNIFICANT WEATHER AND/OR OBSTRUCTION TO VISIBILITY.

MIZ047>049-052>055-059>063-066>070-074>076-081>083-290900-
SOUTHEAST LOWER MICHIGAN

CITY           SKY/WX    TMP DP  RH WIND       PRES   REMARKS
ADRIAN         CLOUDY    27  18  69 S13       29.98F
ALMA           CLOUDY    27  18  70 SE7       29.93F
ANN ARBOR      CLOUDY    25  16  68 SE10      29.98F
BAD AXE        CLOUDY    25  16  69 S15       30.00F
DETROIT CITY   CLOUDY    28  15  58 SE13      30.04F
DETROIT        CLOUDY    26  16  65 SE7       30.03F
FLINT          CLOUDY    29  16  58 SE16      29.95F
GROSSE ILE     CLOUDY    27  18  69 SE10G17   30.02F
HILLSDALE      CLOUDY    26  18  72 S13G18    29.91F
HOWELL         CLOUDY    26  16  64 SE15G24   29.93F

CITY           SKY/WX    TMP DP  RH WIND       PRES   REMARKS
JACKSON        CLOUDY    29  17  61 S15G24    29.92F
LAMBERTVILLE   CLOUDY    30  19  64 SE8       30.00F
LANSING        CLOUDY    27  17  66 S15       29.91F
LAPEER         NOT AVBL
MASON          CLOUDY    26  17  69 S13       29.92F
MONROE         CLOUDY    27  19  74 SE9       30.01F
MT. CLEMENS    CLOUDY    26  18  72 SE12      30.03F
PONTIAC        CLOUDY    25  15  66 SE13      29.97F
PORT HOPE        N/A     26  14  60 SE13G23   29.99F
PORT HURON     CLOUDY    25  16  68 S12G17    30.07F
TRI CITIES     CLOUDY    29  16  58 S9        29.95F
YPSILANTI      CLOUDY    28  17  63 SE12      30.01F
$$
MIZ043>046-050>051-056>058-064>065-071>073-077>080-290900-
SOUTHWEST LOWER MICHIGAN

CITY           SKY/WX    TMP DP  RH WIND       PRES   REMARKS
BATTLE CREEK   MIX PCPN  31  21  66 S15       29.87F
BENTON HARBOR  CLOUDY    31  25  78 S12       29.82F
BIG RAPIDS     CLOUDY    27  18  67 SE10      29.86F
COLDWATER      FLURRIES  30  20  66 S14       29.90F
HOLLAND        MIX PCPN  31  23  72 SE12      29.85F
GRAND RAPIDS   MIX PCPN  29  21  72 S10       29.88F
KALAMAZOO      CLOUDY    30  22  72 S9        29.87F
MARSHALL       MIX PCPN  28  20  70 S9G16     29.90F
MUSKEGON       MIX PCPN  29  21  72 SE9       29.85F
$$
MIZ016>042-290900-
NORTHERN LOWER MICHIGAN

CITY           SKY/WX    TMP DP  RH WIND       PRES   REMARKS
ALPENA         CLOUDY    25  12  58 S12       29.94F
BEAVER ISLAND  CLOUDY    29  15  55 CALM      29.85F
BELLAIRE       CLOUDY    29  13  50 S9        29.87F
CADILLAC       CLOUDY    24  14  66 SE10      29.84F
CHARLEVOIX     CLOUDY    29  12  49 S10G16    29.88F
FRANKFORT      CLOUDY    30  16  55 SE7       29.84F
GAYLORD        CLOUDY    24  10  55 S12       29.85F
GRAYLING       CLOUDY    26  11  55 S8        29.88F
HARBOR SPRINGS CLOUDY    28  13  51 CALM      29.86F
HOUGHTON LAKE    N/A     25  12  58 S9        29.89F
MANISTEE       CLOUDY    30  12  47 SE10      29.85S
OSCODA         CLOUDY    26  15  65 SE12G17   29.96F
PELLSTON       CLOUDY    28  11  48 SE7       29.87F
TRAVERSE CITY  CLOUDY    29  12  49 S7        29.85F
$$
MIZ007>008-015-290900-
EASTERN UPPER MICHIGAN

CITY           SKY/WX    TMP DP  RH WIND       PRES   REMARKS
KINROSS        CLOUDY    27  18  69 SE9       29.88S
MACKINAC ISLAN CLOUDY    28  11  50 SE5       29.86F
NEWBERRY       CLOUDY    25  15  66 SE7       29.84F
S. S. MARIE    CLOUDY    26  16  65 E5        29.89F
$$
MIZ004>006-011>014-085-290900-
CENTRAL UPPER MICHIGAN

CITY           SKY/WX    TMP DP  RH WIND       PRES   REMARKS
MANISTIQUE     CLOUDY    30  21  70 SE9       29.83F
ESCANABA       CLOUDY    30  25  80 S7        29.82F
MENOMINEE      CLOUDY    30  25  80 CALM      29.80S
SAWYER-GWINN   LGT SNOW  27  22  83 S7        29.78S
$$
MIZ001>003-009>011-084-290900-
WESTERN UPPER MICHIGAN

CITY           SKY/WX    TMP DP  RH WIND       PRES   REMARKS
IRON MOUNTAIN  CLOUDY    27  25  92 CALM      29.78S FOG
HOUGHTON       CLOUDY    27  24  89 S3        29.76S
COPPER HARBOR    N/A     30  26  85 SW7       29.77F
IRONWOOD       CLOUDY    27  27 100 W8        29.77S
$$

ABBREVIATIONS USED IN REMARKS
   TC - TEMPERATURE IN CELSIUS
  WCI - WIND CHILL INDEX
   HX - HEAT INDEX
  VSB - VISIBILITY




USA.gov is the U.S. government's official web portal to all federal, state and local government web resources and services.